Location: Peach Mountain Observatory
(42.3967°N, 83.9367°W)
Time: 02:25:59
(UTC-05:00)

deb Explorer IX - Pass Details

Date: 29 January 2020
Orbit: 549 x 1099 km, 38.8° (Epoch: 20 February)

Event Time Altitude Azimuth Distance (km) Brightness Sun altitude
Rises 21:26:13 0° 248° (WSW) 3,567 ? -40.7°
Reaches altitude 10° 21:28:44 10° 245° (WSW) 2,698 ? -41.1°
Enters shadow 21:30:40 21° 240° (WSW) 2,072 ? -41.5°
